Ardabil, Iran

11:49 PM +0330 on October 16, 2019 (GMT +0330)
Ardabil

Weather History for OITL - August, 2019

Change the Weather History Date:

Friday, August 16, 2019

  Actual Average Record
Temperature  
Mean Temperature 70 °F -  
Max Temperature 82 °F - - ()
Min Temperature 59 °F - - ()
Cooling Degree Days 6    
Growing Degree Days 20 (Base 50)    
Moisture  
Dew Point 60 °F    
Average Humidity 71    
Maximum Humidity 100    
Minimum Humidity 48    
Precipitation  
Precipitation 0.00 in - - ()
Sea Level Pressure  
Sea Level Pressure 29.99 in    
Wind  
Wind Speed 8 mph ()    
Max Wind Speed 22 mph    
Max Gust Speed -    
Visibility 5.0 miles    
Events Fog    
T = Trace of Precipitation, MM = Missing Value Source: Averaged Metar Reports

Daily Weather History Graph

Daily Weather History Graph

Search for Another Location

Airport or City:

Astronomy

Aug. 16, 2019 Rise Set
Actual Time 6:31 AM +0430 8:09 PM +0430
Civil Twilight 6:03 AM +0430 8:37 PM +0430
Nautical Twilight 5:29 AM +0430 9:11 PM +0430
Astronomical Twilight 4:52 AM +0430 9:47 PM +0430
Moon 8:57 PM +0430 7:01 AM +0430
Length of Visible Light 14h 34m
Length of Day
13h 38m
Waxing Gibbous, 99% of the Moon is Illuminated
Aug 16
Waxing Gibbous
Aug 23
Last Quarter
Aug 30
New
Sep 6
First Quarter
Sep 14
Full

Hourly Weather History & Observations

Time (+0430) Temp. Heat Index Dew Point Humidity Pressure Visibility Wind Dir Wind Speed Gust Speed Precip Events Conditions
12:20 AM 62.6 °F - 59.0 °F 88% 30.06 in 6.2 mi SE 6.9 mph - N/A Fog Mostly Cloudy
1:24 AM 62.6 °F - 59.0 °F 88% 30.06 in 6.2 mi ENE 4.6 mph - N/A Fog Mostly Cloudy
2:20 AM 60.8 °F - 57.2 °F 88% 30.06 in 6.2 mi NNE 4.6 mph - N/A   Mostly Cloudy
3:20 AM 59.0 °F - 57.2 °F 94% 30.06 in 6.2 mi NNE 4.6 mph - N/A   Overcast
4:20 AM 59.0 °F - 57.2 °F 94% 30.06 in 1.9 mi Calm Calm - N/A   Overcast
5:20 AM 59.0 °F - 59.0 °F 100% 30.06 in 0.9 mi Calm Calm - N/A   Overcast
6:20 AM 59.0 °F - 59.0 °F 100% 30.06 in 0.1 mi SSW 4.6 mph - N/A Fog Fog
7:20 AM 60.8 °F - 60.8 °F 100% 30.06 in 0.1 mi Calm Calm - N/A Fog Fog
8:20 AM 59.0 °F - 59.0 °F 100% 30.06 in 0.2 mi East 4.6 mph - N/A Fog Fog
8:30 AM 59.0 °F - 59.0 °F 100% 30.06 in 0.2 mi East 4.6 mph - N/A Fog Fog
9:00 AM 60.8 °F - 60.8 °F 100% 30.06 in 1.2 mi Variable 4.6 mph - N/A Fog Fog
9:21 AM 64.4 °F - 59.0 °F 83% 30.06 in 1.6 mi Variable 4.6 mph - N/A Fog Fog
9:30 AM 64.4 °F - 59.0 °F 83% 30.06 in 1.6 mi Variable 4.6 mph - N/A Fog Fog
10:00 AM 68.0 °F - 59.0 °F 73% 30.04 in 5.6 mi Variable 2.3 mph - N/A Fog Fog
10:24 AM 73.4 °F - 59.0 °F 61% 30.04 in 6.2 mi ENE 4.6 mph - N/A   Partly Cloudy
10:30 AM 73.4 °F - 59.0 °F 61% 30.04 in 6.2 mi ENE 4.6 mph - N/A   Partly Cloudy
11:00 AM 77.0 °F - 59.0 °F 54% 30.04 in - East 9.2 mph - N/A   Clear
11:23 AM 78.8 °F - 59.0 °F 51% 30.01 in - East 11.5 mph - N/A   Clear
11:30 AM 78.8 °F - 59.0 °F 51% 30.01 in - East 11.5 mph - N/A   Clear
12:00 PM 80.6 °F 81.5 °F 60.8 °F 51% 30.01 in 6.2 mi East 11.5 mph - N/A   Partly Cloudy
12:20 PM 80.6 °F 81.5 °F 60.8 °F 51% 30.01 in 6.2 mi East 11.5 mph - N/A   Partly Cloudy
12:30 PM 80.6 °F 81.5 °F 60.8 °F 51% 30.01 in 6.2 mi ENE 11.5 mph - N/A   Partly Cloudy
1:00 PM 82.4 °F 82.9 °F 60.8 °F 48% 29.98 in 6.2 mi East 18.4 mph - N/A   Partly Cloudy
1:21 PM 80.6 °F 81.5 °F 60.8 °F 51% 29.98 in 6.2 mi ENE 19.6 mph - N/A   Partly Cloudy
1:30 PM 80.6 °F 81.5 °F 60.8 °F 51% 29.98 in 6.2 mi ENE 19.6 mph - N/A   Partly Cloudy
2:21 PM 80.6 °F 81.5 °F 60.8 °F 51% 29.95 in 6.2 mi ENE 19.6 mph - N/A   Partly Cloudy
2:30 PM 80.6 °F 81.5 °F 60.8 °F 51% 29.95 in 6.2 mi ENE 19.6 mph - N/A   Partly Cloudy
3:20 PM 80.6 °F 81.5 °F 60.8 °F 51% 29.95 in 6.2 mi ENE 19.6 mph - N/A   Partly Cloudy
3:30 PM 80.6 °F 81.5 °F 60.8 °F 51% 29.95 in 6.2 mi ENE 19.6 mph - N/A   Partly Cloudy
4:21 PM 78.8 °F - 62.6 °F 57% 29.92 in 6.2 mi ENE 21.9 mph - N/A   Partly Cloudy
4:30 PM 78.8 °F - 62.6 °F 57% 29.92 in 6.2 mi ENE 21.9 mph - N/A   Partly Cloudy
5:00 PM 77.0 °F - 62.6 °F 61% 29.92 in 6.2 mi ENE 19.6 mph - N/A   Partly Cloudy
5:22 PM 77.0 °F - 62.6 °F 61% 29.92 in 6.2 mi ENE 19.6 mph - N/A   Partly Cloudy
5:30 PM 77.0 °F - 62.6 °F 61% 29.92 in 6.2 mi ENE 19.6 mph - N/A   Partly Cloudy
6:00 PM 75.2 °F - 62.6 °F 65% 29.89 in 6.2 mi ENE 19.6 mph - N/A   Partly Cloudy
6:24 PM 73.4 °F - 60.8 °F 65% 29.89 in 6.2 mi ENE 19.6 mph - N/A   Partly Cloudy
6:30 PM 73.4 °F - 60.8 °F 65% 29.89 in 6.2 mi ENE 19.6 mph - N/A   Partly Cloudy
7:21 PM 69.8 °F - 60.8 °F 73% 29.89 in 6.2 mi ENE 13.8 mph - N/A   Partly Cloudy
7:30 PM 69.8 °F - 60.8 °F 73% 29.89 in 6.2 mi ENE 13.8 mph - N/A   Partly Cloudy
8:22 PM 68.0 °F - 59.0 °F 73% 29.89 in 6.2 mi ENE 6.9 mph - N/A Fog Partly Cloudy
9:20 PM 66.2 °F - 59.0 °F 78% 29.92 in 6.2 mi SSE 4.6 mph - N/A Fog Partly Cloudy
10:20 PM 62.6 °F - 59.0 °F 88% 29.92 in 5.0 mi SE 6.9 mph - N/A Fog Fog
11:22 PM 59.0 °F - 57.2 °F 94% 29.92 in 6.2 mi SSE 6.9 mph - N/A Fog Unknown